Location: Newark
(49.8348°N, 24.0280°E)
Time: 06:39:44
(UTC+00:00)

S-56A Canister/Altair - Pass Details

Date: 03 February 2020
Orbit: 633 x 2500 km, 38.9° (Epoch: 27 February)

Event Time Altitude Azimuth Distance (km) Brightness Sun altitude
Rises 13:42:41 0° 200° (SSW) 5,730 13.3 12.1°
Reaches altitude 10° 13:48:29 10° 184° (S) 4,394 12.2 11.4°
Maximum altitude 13:54:55 17° 149° (SSE) 3,405 11.0 10.7°
Drops below altitude 10° 14:00:13 10° 114° (ESE) 3,507 10.7 10.0°
Sets 14:04:02 0° 94° (E) 4,150 10.9 9.6°
